Weather History for KPRX - May, 2013

Change the Weather History Date:

Friday, May 3, 2013

  Actual Average Record
Temperature  
Mean Temperature 50 °F -  
Max Temperature 64 °F 76 °F 87 °F (2012)
Min Temperature 37 °F 57 °F 37 °F (2013)
Degree Days  
Heating Degree Days 16    
Moisture  
Dew Point 32 °F    
Average Humidity 55    
Maximum Humidity 87    
Minimum Humidity 27    
Precipitation  
Precipitation 0.04 in - - ()
Sea Level Pressure  
Sea Level Pressure 30.14 in    
Wind  
Wind Speed 18 mph (NW)    
Max Wind Speed 32 mph    
Max Gust Speed 40 mph    
Visibility 10 miles    
Events      
Averages and records for this station are not official NWS values.
T = Trace of Precipitation, MM = Missing Value Source: NWS Daily Summary

Daily Weather History Graph

Daily Weather History Graph

Search for Another Location

Airport or City:

Trip Planner

Search our weather history database for the weather conditions in past years. The results will help you decide how hot, cold, wet, or windy it might be!

Date:

Astronomy

May. 03, 2013 Rise Set
Actual Time 6:31 AM CDT 8:06 PM CDT
Civil Twilight 6:04 AM CDT 8:33 PM CDT
Nautical Twilight 5:32 AM CDT 9:05 PM CDT
Astronomical Twilight 4:58 AM CDT 9:39 PM CDT
Moon 2:37 AM CDT (5/3) 2:19 PM CDT (5/3)
Length of Visible Light 14h 29m
Length of Day
13h 35m
Last Quarter, 37% of the Moon is Illuminated
May 3
Last Quarter
May 9
New
May 17
First Quarter
May 24
Full
May 31
Last Quarter

Hourly Weather History & Observations

Time (CDT) Temp. Windchill Dew Point Humidity Pressure Visibility Wind Dir Wind Speed Gust Speed Precip Events Conditions
12:15 AM 39.2 °F 29.0 °F 35.6 °F 87% 30.24 in 10.0 mi NNW 21.9 mph 25.3 mph N/A   Overcast
12:35 AM 39.2 °F 29.6 °F 35.6 °F 87% 30.24 in 10.0 mi NNW 19.6 mph 23.0 mph N/A   Overcast
12:55 AM 39.2 °F 29.6 °F 33.8 °F 81% 30.24 in 10.0 mi NNW 19.6 mph 26.5 mph 0.01 in   Overcast
1:15 AM 39.2 °F 29.0 °F 33.8 °F 81% 30.23 in 10.0 mi NNW 21.9 mph 28.8 mph 0.01 in   Overcast
1:35 AM 39.2 °F 30.8 °F 33.8 °F 81% 30.23 in 10.0 mi NNW 15.0 mph 26.5 mph 0.02 in   Overcast
1:55 AM 39.2 °F 29.3 °F 33.8 °F 81% 30.23 in 10.0 mi NNW 20.7 mph 29.9 mph 0.03 in   Overcast
2:15 AM 39.2 °F 28.7 °F 33.8 °F 81% 30.22 in 10.0 mi NNW 23.0 mph 27.6 mph N/A   Overcast
2:35 AM 37.4 °F 27.5 °F 33.8 °F 87% 30.23 in 10.0 mi NNW 18.4 mph 26.5 mph N/A   Overcast
3:15 AM 39.2 °F 29.3 °F 33.8 °F 81% 30.21 in 10.0 mi NNW 20.7 mph 26.5 mph N/A   Overcast
3:35 AM 39.2 °F 29.6 °F 33.8 °F 81% 30.21 in 10.0 mi NNW 19.6 mph 26.5 mph N/A   Overcast
3:55 AM 39.2 °F 29.8 °F 33.8 °F 81% 30.21 in 10.0 mi NNW 18.4 mph 28.8 mph N/A   Overcast
4:15 AM 39.2 °F 29.8 °F 33.8 °F 81% 30.22 in 10.0 mi NNW 18.4 mph 25.3 mph N/A   Overcast
4:35 AM 39.2 °F 30.5 °F 33.8 °F 81% 30.22 in 10.0 mi NNW 16.1 mph 23.0 mph N/A   Overcast
4:55 AM 39.2 °F 29.6 °F 33.8 °F 81% 30.21 in 10.0 mi NNW 19.6 mph 31.1 mph N/A   Overcast
5:15 AM 39.2 °F 29.3 °F 33.8 °F 81% 30.21 in 10.0 mi NNW 20.7 mph 27.6 mph N/A   Overcast
5:35 AM 39.2 °F 29.3 °F 33.8 °F 81% 30.20 in 10.0 mi NNW 20.7 mph 26.5 mph N/A   Overcast
5:55 AM 41.0 °F 32.5 °F 33.8 °F 76% 30.21 in 10.0 mi NNW 17.3 mph 28.8 mph N/A   Overcast
6:15 AM 39.2 °F 30.8 °F 33.8 °F 81% 30.21 in 10.0 mi NNW 15.0 mph 26.5 mph N/A   Overcast
6:35 AM 39.2 °F 30.5 °F 33.8 °F 81% 30.22 in 10.0 mi NNW 16.1 mph 20.7 mph N/A   Overcast
6:55 AM 39.2 °F 29.6 °F 33.8 °F 81% 30.22 in 10.0 mi NNW 19.6 mph 25.3 mph N/A   Overcast
7:15 AM 39.2 °F 29.6 °F 32.0 °F 75% 30.22 in 10.0 mi NNW 19.6 mph 24.2 mph N/A   Mostly Cloudy
7:35 AM 39.2 °F 30.5 °F 33.8 °F 81% 30.23 in 10.0 mi NNW 16.1 mph 25.3 mph N/A   Scattered Clouds
7:55 AM 39.2 °F 30.2 °F 33.8 °F 81% 30.23 in 10.0 mi NNW 17.3 mph 27.6 mph N/A   Scattered Clouds
8:15 AM 41.0 °F 32.8 °F 33.8 °F 76% 30.23 in 10.0 mi NW 16.1 mph 20.7 mph N/A   Scattered Clouds
8:35 AM 41.0 °F 32.2 °F 33.8 °F 76% 30.23 in 10.0 mi NNW 18.4 mph 24.2 mph N/A   Partly Cloudy
8:55 AM 42.8 °F 34.8 °F 33.8 °F 70% 30.23 in 10.0 mi NNW 17.3 mph 24.2 mph N/A   Clear
9:15 AM 44.6 °F 36.9 °F 33.8 °F 66% 30.22 in 10.0 mi NNW 18.4 mph 27.6 mph N/A   Clear
9:35 AM 46.4 °F 38.5 °F 35.6 °F 66% 30.22 in 10.0 mi NNW 21.9 mph 27.6 mph N/A   Clear
9:55 AM 48.2 °F - 35.6 °F 62% 30.22 in 10.0 mi NNW 18.4 mph 27.6 mph N/A   Partly Cloudy
10:15 AM 48.2 °F - 35.6 °F 62% 30.22 in 10.0 mi NW 19.6 mph 24.2 mph N/A   Clear
10:35 AM 50.0 °F - 35.6 °F 58% 30.21 in 10.0 mi NNW 18.4 mph 28.8 mph N/A   Clear
10:55 AM 51.8 °F - 35.6 °F 54% 30.21 in 10.0 mi NNW 23.0 mph 28.8 mph N/A   Clear
11:15 AM 53.6 °F - 33.8 °F 47% 30.21 in 10.0 mi North 23.0 mph 28.8 mph N/A   Clear
11:35 AM 53.6 °F - 33.8 °F 47% 30.20 in 10.0 mi NNW 21.9 mph 31.1 mph N/A   Clear
11:55 AM 55.4 °F - 30.2 °F 38% 30.19 in 10.0 mi NNW 20.7 mph 32.2 mph N/A   Clear
12:15 PM 55.4 °F - 30.2 °F 38% 30.18 in 10.0 mi NNW 32.2 mph 35.7 mph N/A   Clear
12:35 PM 57.2 °F - 32.0 °F 38% 30.16 in 10.0 mi NNW 20.7 mph 32.2 mph N/A   Clear
12:55 PM 57.2 °F - 30.2 °F 36% 30.15 in 10.0 mi North 28.8 mph 36.8 mph N/A   Clear
1:15 PM 59.0 °F - 32.0 °F 36% 30.14 in 10.0 mi NNW 17.3 mph 32.2 mph N/A   Partly Cloudy
1:35 PM 59.0 °F - 32.0 °F 36% 30.14 in 10.0 mi NW 26.5 mph 40.3 mph N/A   Partly Cloudy
1:55 PM 60.8 °F - 33.8 °F 36% 30.13 in 10.0 mi NNW 24.2 mph 34.5 mph N/A   Partly Cloudy
2:15 PM 60.8 °F - 33.8 °F 36% 30.12 in 10.0 mi NW 26.5 mph 33.4 mph N/A   Scattered Clouds
2:35 PM 60.8 °F - 32.0 °F 34% 30.12 in 10.0 mi NNW 20.7 mph 33.4 mph N/A   Scattered Clouds
2:55 PM 62.6 °F - 32.0 °F 32% 30.11 in 10.0 mi NW 23.0 mph 36.8 mph N/A   Scattered Clouds
3:15 PM 62.6 °F - 30.2 °F 30% 30.10 in 10.0 mi NW 25.3 mph 33.4 mph N/A   Partly Cloudy
3:35 PM 62.6 °F - 30.2 °F 30% 30.08 in 10.0 mi NW 24.2 mph 29.9 mph N/A   Clear
3:55 PM 62.6 °F - 33.8 °F 34% 30.07 in 10.0 mi NW 21.9 mph 27.6 mph N/A   Scattered Clouds
4:15 PM 60.8 °F - 28.4 °F 29% 30.07 in 10.0 mi NW 18.4 mph 27.6 mph N/A   Scattered Clouds
4:35 PM 62.6 °F - 30.2 °F 30% 30.06 in 10.0 mi NNW 20.7 mph 25.3 mph N/A   Partly Cloudy
4:55 PM 62.6 °F - 28.4 °F 27% 30.05 in 10.0 mi NNW 19.6 mph 32.2 mph N/A   Scattered Clouds
5:15 PM 62.6 °F - 30.2 °F 30% 30.05 in 10.0 mi NNW 19.6 mph 25.3 mph N/A   Mostly Cloudy
5:35 PM 62.6 °F - 28.4 °F 27% 30.05 in 10.0 mi NNW 18.4 mph 26.5 mph N/A   Mostly Cloudy
5:55 PM 60.8 °F - 28.4 °F 29% 30.05 in 10.0 mi NW 15.0 mph 19.6 mph N/A   Partly Cloudy
6:15 PM 60.8 °F - 26.6 °F 27% 30.05 in 10.0 mi NNW 18.4 mph 25.3 mph N/A   Clear
6:35 PM 60.8 °F - 28.4 °F 29% 30.05 in 10.0 mi NW 15.0 mph 23.0 mph N/A   Clear
6:55 PM 60.8 °F - 28.4 °F 29% 30.05 in 10.0 mi NW 18.4 mph - N/A   Clear
7:15 PM 60.8 °F - 28.4 °F 29% 30.05 in 10.0 mi NNW 9.2 mph - N/A   Clear
7:35 PM 57.2 °F - 28.4 °F 33% 30.05 in 10.0 mi NW 9.2 mph - N/A   Clear
7:55 PM 57.2 °F - 26.6 °F 31% 30.05 in 10.0 mi NW 8.1 mph - N/A   Clear
8:15 PM 53.6 °F - 28.4 °F 38% 30.05 in 10.0 mi NNW 4.6 mph - N/A   Clear
8:35 PM 55.4 °F - 28.4 °F 36% 30.05 in 10.0 mi Calm Calm - N/A   Clear
8:55 PM 53.6 °F - 26.6 °F 35% 30.04 in 10.0 mi Calm Calm - N/A   Clear
9:15 PM 51.8 °F - 30.2 °F 44% 30.04 in 10.0 mi Calm Calm - N/A   Clear
9:35 PM 50.0 °F - 30.2 °F 47% 30.04 in 10.0 mi Calm Calm - N/A   Clear
9:55 PM 48.2 °F - 30.2 °F 50% 30.05 in 10.0 mi WSW 4.6 mph - N/A   Clear
10:15 PM 46.4 °F 43.5 °F 32.0 °F 57% 30.04 in 10.0 mi SW 5.8 mph - N/A   Clear
10:35 PM 46.4 °F 44.3 °F 32.0 °F 57% 30.04 in 10.0 mi WSW 4.6 mph - N/A   Clear
10:55 PM 48.2 °F - 30.2 °F 50% 30.04 in 10.0 mi WSW 3.5 mph - N/A   Partly Cloudy
11:15 PM 46.4 °F 44.3 °F 30.2 °F 53% 30.03 in 10.0 mi WSW 4.6 mph - N/A   Clear
11:35 PM 44.6 °F 42.2 °F 30.2 °F 57% 30.03 in 10.0 mi WSW 4.6 mph - N/A   Clear
11:55 PM 44.6 °F 42.2 °F 30.2 °F 57% 30.02 in 10.0 mi WSW 4.6 mph - N/A   Clear